Lake Kabetogama Weather Center

Moon Phase Calendar



Lake Kabetogama Water Level
Online Cameras

 


      

Current Conditions in Crescent Drive Mobile Village
3/8/2021 9:51:46 PM

31°F
Feels Like 22
Clouds
Humidity
86%
Pressure
30.18"
Wind
8.4 mph (S)
Dew Point
28°F
UV Index
0/10 (Low)
Visibility
6 mi

Hourly Forecast

Date & Time Mon, Mar 8
9:00 PM
Mon, Mar 8
10:00 PM
Mon, Mar 8
11:00 PM
Tue, Mar 9
12:00 AM
Tue, Mar 9
1:00 AM
Tue, Mar 9
2:00 AM
Tue, Mar 9
3:00 AM
Tue, Mar 9
4:00 AM
Tue, Mar 9
5:00 AM
Tue, Mar 9
6:00 AM
Tue, Mar 9
7:00 AM
Tue, Mar 9
8:00 AM
Tue, Mar 9
9:00 AM
Tue, Mar 9
10:00 AM
Tue, Mar 9
11:00 AM
Tue, Mar 9
12:00 PM
Tue, Mar 9
1:00 PM
Tue, Mar 9
2:00 PM
Tue, Mar 9
3:00 PM
Tue, Mar 9
4:00 PM
Tue, Mar 9
5:00 PM
Tue, Mar 9
6:00 PM
Tue, Mar 9
7:00 PM
Tue, Mar 9
8:00 PM
Tue, Mar 9
9:00 PM
Tue, Mar 9
10:00 PM
Tue, Mar 9
11:00 PM
Wed, Mar 10
12:00 AM
Wed, Mar 10
1:00 AM
Wed, Mar 10
2:00 AM
Wed, Mar 10
3:00 AM
Wed, Mar 10
4:00 AM
Wed, Mar 10
5:00 AM
Wed, Mar 10
6:00 AM
Wed, Mar 10
7:00 AM
Wed, Mar 10
8:00 AM
Wed, Mar 10
9:00 AM
Wed, Mar 10
10:00 AM
Wed, Mar 10
11:00 AM
Wed, Mar 10
12:00 PM
Wed, Mar 10
1:00 PM
Wed, Mar 10
2:00 PM
Wed, Mar 10
3:00 PM
Wed, Mar 10
4:00 PM
Wed, Mar 10
5:00 PM
Wed, Mar 10
6:00 PM
Wed, Mar 10
7:00 PM
Wed, Mar 10
8:00 PM
Condition
Clear

Clear

Clouds

Clouds

Clouds

Clouds

Clouds

Clouds

Clouds

Clouds

Clouds

Clouds

Clouds

Clouds

Clouds

Clouds

Clouds

Rain

Rain

Clouds

Clouds

Clouds

Clouds

Clouds

Clouds

Clouds

Clouds

Clouds

Clouds

Clouds

Clouds

Clouds

Clouds

Clouds

Clouds

Clouds

Clouds

Clouds

Clouds

Clouds

Clouds

Clouds

Clouds

Clouds

Clouds

Clouds

Snow

Snow
Temperature 31°F33°F35°F35°F37°F38°F38°F38°F39°F39°F39°F39°F41°F44°F46°F46°F45°F45°F44°F44°F44°F45°F46°F47°F47°F44°F40°F37°F35°F33°F32°F31°F29°F28°F27°F26°F27°F28°F30°F31°F32°F33°F33°F32°F30°F29°F27°F26°F
Feels Like 23°F25°F26°F27°F29°F29°F29°F28°F29°F28°F28°F29°F31°F34°F36°F36°F36°F36°F37°F37°F37°F37°F37°F38°F38°F35°F30°F26°F24°F22°F21°F21°F19°F17°F17°F16°F18°F20°F22°F22°F23°F24°F24°F21°F20°F18°F17°F15°F
Cloudiness 2%2%16%31%99%100%100%100%100%100%100%100%100%100%100%100%100%100%100%100%100%100%100%100%100%100%100%100%100%100%100%100%100%100%100%100%100%100%100%100%100%100%100%100%100%100%100%100%
Visibility 6 mi6 mi6 mi6 mi6 mi6 mi6 mi6 mi6 mi6 mi6 mi6 mi6 mi6 mi6 mi6 mi6 mi6 mi6 mi6 mi6 mi6 mi6 mi6 mi6 mi6 mi6 mi6 mi6 mi6 mi6 mi6 mi6 mi6 mi6 mi6 mi6 mi6 mi6 mi6 mi6 mi6 mi6 mi6 mi6 mi6 mi1 mi1 mi
Precipitation 0%0%0%0%0%0%0%0%0%0%3%3%3%3%0%0%21%33%41%33%33%25%14%10%17%6%3%3%0%0%0%0%0%0%0%0%0%0%0%0%0%0%0%2%2%12%84%97%
Humidity 86%87%84%85%78%77%76%74%72%72%73%74%77%80%81%84%86%88%90%91%92%91%90%89%89%93%91%91%91%94%96%96%96%95%95%94%93%92%91%90%90%88%87%90%91%92%96%96%
Dew Point 28°F30°F30°F31°F31°F28°F28°F26°F26°F26°F28°F31°F34°F38°F41°F41°F41°F42°F42°F42°F42°F42°F43°F44°F44°F42°F38°F35°F33°F30°F28°F27°F25°F23°F22°F21°F21°F21°F21°F22°F22°F23°F22°F22°F22°F22°F23°F23°F
Pressure 30.18"30.18"30.18"30.15"30.15"30.12"30.09"30.06"30.03"30"29.94"29.91"29.88"29.85"29.83"29.77"29.74"29.71"29.68"29.65"29.65"29.62"29.62"29.62"29.65"29.65"29.71"29.74"29.77"29.83"29.85"29.88"29.88"29.91"29.91"29.91"29.94"29.94"29.94"29.94"29.91"29.88"29.85"29.85"29.85"29.88"29.88"29.85"
Wind Speed 6.7 mph6.8 mph7.9 mph7.4 mph8.2 mph8.2 mph8.6 mph10.8 mph11.2 mph13 mph12.9 mph12 mph12 mph12.6 mph12.8 mph13.5 mph13.2 mph12.8 mph8.8 mph8 mph8.2 mph10.1 mph12.6 mph13 mph13.5 mph12.8 mph13.5 mph14 mph13.3 mph13 mph11.7 mph10.5 mph10.6 mph10.8 mph9.9 mph9.9 mph8.7 mph7 mph7 mph8.1 mph9.4 mph8 mph9.2 mph12.4 mph12 mph11.6 mph10 mph12 mph
Wind
Direction
188°
S
181°
S
184°
S
169°
S
164°
SSE
159°
SSE
155°
SSE
149°
SSE
153°
SSE
153°
SSE
158°
SSE
164°
SSE
165°
SSE
171°
S
176°
S
176°
S
179°
S
183°
S
190°
S
186°
S
186°
S
183°
S
182°
S
194°
SSW
223°
SW
261°
W
271°
W
274°
W
277°
W
277°
W
277°
W
286°
WNW
303°
WNW
316°
NW
323°
NW
334°
NNW
347°
NNW
357°
N

N
23°
NNE
30°
NNE
40°
NE
47°
NE
29°
NNE
45°
NE
56°
NE
46°
NE
55°
NE

Daily Forecast

Date High Low Precip. Humidity
Today
Mar 8

Clouds
46 °F
29 °F
0%
74%
Tuesday
Mar 9

Rain
47 °F
35 °F
41%
84%
Wednesday
Mar 10

Snow
37 °F
26 °F
100%
90%
Thursday
Mar 11

Snow
38 °F
24 °F
98%
87%
Friday
Mar 12

Clear
25 °F
13 °F
80%
79%
Saturday
Mar 13

Clear
35 °F
16 °F
0%
83%
Sunday
Mar 14

Clouds
41 °F
22 °F
0%
70%
Monday
Mar 15

Snow
33 °F
27 °F
100%
97%
Tuesday
Mar 16

Snow
37 °F
20 °F
100%
97%
Wednesday
Mar 17

Snow
19 °F
9 °F
23%
88%
Thursday
Mar 18

Clouds
18 °F
4 °F
0%
85%
Friday
Mar 19

Clouds
24 °F
8 °F
0%
81%
Saturday
Mar 20

Clouds
34 °F
11 °F
0%
86%
Sunday
Mar 21

Clear
44 °F
20 °F
0%
66%
Monday
Mar 22

Clouds
40 °F
25 °F
0%
75%
Tuesday
Mar 23

Rain
48 °F
34 °F
36%
57%


Temperature 8-14 Day Outlook



Precipitation 8-14 Day Outlook




Quick Links
Lake Kabetogama News
Lake Kabetogama Photos
Lake Kabetogama Videos




About Us
Contact Us
Site Map
Search Site
Advertise With Us
   
Kabetogama.USLakes.info
THE LAKE KABETOGAMA WEBSITE

Copyright 2021, Lakes Online
Privacy    |    Legal